Theta_e
334 333 332 332 333 333 332 332 331 330 330 329 328 327 324 320 317 314 313 312 311 310 309 308 306 302 301 300 300 300 300 300 300 300 300 300 300 300 299 299 299 299
334 333 332 332 333 333 332 332 331 330 329 328 328 326 320 316 314 312 311 310 310 309 307 305 303 301 300 300 299 299 300 300 300 300 299 300 299 299 299 299 298 298
332 332 332 333 333 332 332 332 331 330 329 328 327 324 316 313 313 311 310 309 308 307 305 303 301 300 300 299 299 299 299 299 299 299 299 299 299 299 298 298 298 298
332 332 332 332 332 332 332 332 331 330 329 327 327 323 315 311 311 310 309 308 306 305 302 300 300 300 299 299 299 299 299 299 299 299 299 299 298 298 298 298 297 298
331 332 332 332 332 332 332 332 330 329 328 326 325 322 314 310 310 309 308 307 305 303 300 300 300 299 299 299 299 299 299 299 299 299 298 298 298 298 297 297 297 297
331 331 332 331 331 332 332 331 329 328 327 325 324 321 313 309 309 308 306 305 303 301 300 299 299 298 299 298 298 299 298 299 298 298 298 298 297 297 297 297 297 297
331 331 331 331 331 331 330 330 328 327 326 324 323 320 312 309 308 306 305 303 300 300 299 299 299 298 298 298 298 298 298 298 298 298 298 297 297 297 297 297 296 296
330 330 330 330 331 331 329 328 326 326 325 324 323 318 311 308 307 305 303 301 299 299 299 298 298 298 298 298 298 298 298 298 298 297 297 297 297 297 296 296 296 296
330 329 329 331 331 329 327 326 326 326 325 323 322 317 310 307 306 303 302 300 299 299 298 298 298 298 298 298 298 298 298 298 297 297 297 297 297 296 296 296 296 295
330 329 329 330 329 327 326 326 326 326 323 321 320 316 309 306 304 302 300 299 298 298 298 298 298 298 298 298 298 298 297 297 297 297 297 296 296 296 296 296 295 295
331 330 329 329 327 326 326 327 326 325 322 320 319 314 308 305 303 301 300 299 298 298 298 298 298 298 298 298 298 297 297 297 297 297 297 296 296 296 296 295 295 295
331 330 328 327 326 327 327 327 325 323 321 319 317 312 307 304 301 300 299 299 298 298 298 298 298 298 298 298 298 297 297 297 296 296 296 296 296 296 295 295 295 295
329 328 327 327 327 327 327 326 324 321 319 318 314 310 306 302 300 299 299 298 298 298 298 298 298 298 298 298 297 297 297 297 296 296 296 296 296 296 295 295 295 295
328 328 327 327 327 326 325 324 322 319 317 315 312 308 304 301 299 299 299 298 298 298 298 298 298 298 298 297 297 297 296 296 296 296 296 296 295 295 295 295 295 295
328 328 328 327 326 325 324 322 319 317 315 313 310 305 301 299 299 299 298 298 298 298 298 298 298 298 298 297 297 296 296 296 296 296 296 295 295 295 295 295 295 294
327 327 327 326 325 323 321 319 317 316 314 311 307 303 299 298 299 298 298 298 298 297 297 298 298 297 297 297 296 296 296 296 295 295 295 295 295 295 294 294 294 294
327 326 326 324 322 321 319 318 316 315 312 309 306 301 298 298 298 298 298 298 298 297 297 297 297 297 297 297 296 296 295 295 295 295 295 295 295 294 294 294 294 294
327 325 324 322 320 319 318 316 315 313 311 308 303 299 297 298 298 298 298 298 297 297 297 297 297 297 297 296 296 296 295 295 295 295 295 294 294 294 294 294 294 294
325 324 322 320 319 318 316 314 313 311 309 305 300 298 297 298 299 299 299 298 297 297 297 297 297 297 296 296 296 295 295 295 295 295 294 294 294 294 294 294 294 294
323 322 321 319 318 316 315 313 311 309 305 301 297 297 297 298 299 300 299 298 297 297 297 297 297 297 296 296 295 295 295 294 294 294 294 294 294 294 294 294 294 294
322 320 318 318 317 315 313 311 309 306 301 298 296 296 297 298 300 300 299 298 297 297 296 296 296 296 296 296 295 295 295 294 294 294 294 294 294 294 294 294 294 294
320 318 317 317 315 314 312 310 307 304 299 297 296 296 297 299 300 300 300 298 297 297 296 296 296 296 296 296 295 295 294 294 294 294 294 294 294 294 294 294 294 294
318 317 317 316 315 313 311 308 306 302 298 296 296 296 297 299 300 301 300 298 297 297 296 296 296 296 295 295 295 294 294 294 294 294 294 294 294 294 294 294 294 294
319 318 316 315 314 312 310 308 305 301 297 296 296 296 296 298 300 301 300 299 297 297 297 297 296 295 295 294 294 294 294 294 294 294 294 294 294 294 294 294 294 294
320 318 316 315 314 311 309 307 304 300 298 297 296 296 296 297 299 300 301 300 298 297 297 297 297 296 294 295 294 294 294 294 294 294 294 294 294 294 294 294 294 294
318 316 315 314 313 310 309 307 303 300 300 298 297 297 297 297 297 298 299 300 300 298 298 297 297 296 295 294 294 294 294 294 293 294 294 294 294 294 294 294 294 294
Wind_Speed
12 10 9 10 11 10 9 8 6 4 2 2 5 7 5 2 3 5 5 4 4 4 5 5 6 6 6 7 8 9 10 10 13 14 14 15 16 17 18 18 17 18
11 11 12 13 14 13 11 8 5 3 1 3 6 7 3 2 5 5 5 4 4 4 5 5 5 6 6 8 9 10 10 12 14 15 14 16 17 18 18 17 17 18
10 12 14 15 16 14 11 7 5 2 2 5 7 6 1 4 6 5 5 5 5 4 5 5 5 6 7 9 10 10 11 13 14 14 15 17 17 17 17 17 17 19
12 14 15 17 17 14 9 6 4 1 3 6 7 5 1 5 6 6 5 5 5 4 5 5 6 7 8 10 10 10 12 15 15 14 15 17 17 17 17 17 19 20
14 15 17 19 18 13 8 6 4 1 3 6 6 3 3 6 6 6 5 5 5 5 5 6 7 8 10 11 10 11 13 15 15 14 15 17 17 17 18 19 19 20
16 16 19 19 16 11 10 8 4 2 5 6 5 2 4 7 7 6 6 5 5 5 6 7 8 10 11 12 11 12 14 15 15 14 15 16 17 18 19 19 20 21
18 17 18 17 14 13 12 8 3 5 6 6 5 0 6 8 8 7 7 6 5 6 7 8 10 12 12 12 12 14 15 15 15 14 15 17 18 18 19 19 20 22
17 16 17 15 15 15 11 5 4 6 7 6 4 2 7 9 8 8 7 6 6 7 8 9 12 13 13 12 13 14 15 15 15 14 15 17 18 18 19 19 21 22
15 15 16 17 18 15 8 5 7 7 6 6 3 4 8 10 9 9 8 7 7 8 9 11 13 14 14 13 13 13 14 15 14 14 15 16 17 18 19 20 21 22
16 14 17 20 17 10 7 9 8 7 7 5 2 6 9 10 10 10 8 8 8 9 11 13 14 15 15 14 13 13 13 14 14 14 15 16 17 18 19 20 20 21
19 18 19 17 12 9 10 10 8 7 7 5 4 8 9 10 11 11 10 9 9 10 12 14 15 15 15 14 14 13 13 13 14 14 15 16 17 18 19 20 20 21
20 20 17 13 12 12 12 10 9 9 7 5 7 9 10 11 11 11 11 10 11 12 14 15 16 16 15 14 13 13 13 13 13 14 15 16 17 18 18 19 19 20
20 18 15 15 15 14 11 10 10 8 6 7 10 10 10 11 12 12 12 11 11 14 15 16 16 16 15 14 13 13 13 13 13 14 15 16 17 18 18 18 18 19
20 19 18 17 16 13 12 11 10 9 8 10 11 11 12 12 12 12 12 12 13 15 16 16 16 16 15 14 13 13 13 13 13 14 15 16 17 17 17 17 17 17
22 21 19 17 15 13 12 11 11 10 11 13 13 13 13 13 12 12 12 13 14 16 17 17 16 15 14 13 13 13 13 13 14 15 15 16 17 16 16 16 16 17
22 20 17 17 15 13 12 12 13 12 13 14 14 14 14 14 13 12 12 12 15 17 18 18 17 16 14 13 12 12 13 13 14 15 16 16 16 15 15 15 15 16
19 18 17 16 14 13 13 14 14 14 14 15 15 15 15 15 14 14 13 13 15 18 19 18 18 16 15 14 13 13 13 13 14 15 16 16 15 15 15 15 15 14
18 18 16 15 14 15 15 15 15 15 15 15 16 16 16 16 15 14 14 14 17 18 19 18 17 16 15 14 14 14 13 13 14 14 15 15 14 14 14 14 14 13
19 17 16 15 15 15 15 15 16 16 16 16 17 17 17 16 16 15 14 16 17 18 18 18 17 16 15 14 14 14 13 13 13 14 14 14 14 14 14 14 13 13
17 16 15 15 15 15 15 16 16 16 16 16 17 17 17 17 17 16 15 16 17 18 18 17 16 16 15 15 14 14 13 13 13 13 13 13 13 13 13 13 12 12
17 16 15 15 15 16 16 17 17 17 17 17 18 18 18 18 17 16 16 17 18 17 17 16 16 15 15 15 14 13 13 12 12 12 12 12 13 12 12 12 12 12
17 16 15 15 16 17 18 18 18 18 18 18 19 18 18 18 17 16 17 18 18 17 17 16 15 15 15 15 14 13 13 12 11 11 11 12 12 12 11 11 11 11
16 14 14 15 17 18 19 18 18 18 18 19 19 19 19 18 18 17 17 18 18 18 17 15 15 15 15 15 14 14 12 11 11 11 10 11 11 11 11 10 10 10
12 11 14 16 17 19 19 18 18 19 19 19 20 20 19 19 18 18 18 18 18 18 16 15 14 14 16 16 15 14 12 11 11 10 10 10 10 10 10 9 9 9
11 11 14 16 17 19 19 19 19 19 19 20 19 18 18 18 19 18 18 19 19 18 17 16 15 14 16 16 15 14 13 11 10 9 9 9 9 9 9 9 8 7
14 14 16 17 19 20 20 20 21 20 19 20 20 20 19 19 19 18 18 19 20 20 19 18 16 16 16 16 15 14 13 11 10 9 9 8 8 8 8 7 7 6
Wind_Direction
210 194 189 199 195 194 203 207 209 217 233 314 332 338 333 296 166 146 128 113 100 76 59 48 45 53 70 82 86 88 88 85 82 81 78 76 72 69 66 63 62 62
197 190 195 199 194 194 198 200 203 205 244 342 347 347 338 156 144 136 123 111 97 79 67 55 60 76 87 91 92 93 91 87 85 83 81 77 74 71 68 67 67 66
202 197 195 195 196 194 190 196 205 195 360 351 350 350 29 139 137 134 127 114 97 82 74 69 80 94 98 98 98 96 94 90 87 86 83 80 76 73 72 71 70 67
201 199 194 194 196 192 187 198 197 149 355 340 342 346 123 144 140 137 129 114 100 87 82 87 97 106 107 105 104 101 98 94 90 88 84 81 79 77 76 73 70 68
197 193 194 196 195 192 196 194 173 132 316 318 333 335 165 152 144 142 131 116 107 96 94 101 111 117 114 111 109 105 101 96 93 90 85 83 83 79 77 74 70 68
194 191 195 195 193 199 202 186 169 257 289 307 327 317 171 160 153 149 136 121 114 107 108 115 122 123 117 113 113 108 102 99 96 92 87 85 84 81 78 75 72 70
188 189 191 192 197 203 194 176 198 266 281 309 328 227 171 167 162 153 141 128 120 116 119 125 128 125 119 117 116 109 104 100 97 95 90 88 86 83 80 77 74 72
185 186 185 193 203 198 184 182 241 261 277 306 323 175 173 171 165 155 144 133 126 125 129 134 133 127 121 121 117 110 106 103 101 98 93 91 88 85 82 78 75 72
181 184 189 200 199 189 188 222 235 248 271 295 300 186 178 172 164 155 144 137 133 134 138 140 137 129 124 123 118 113 109 107 105 101 96 93 90 86 83 80 77 74
183 188 194 196 190 188 212 221 220 242 271 285 254 192 184 174 164 154 146 142 139 141 146 144 139 132 128 126 122 117 113 109 107 103 98 95 92 89 86 82 79 75
190 192 190 190 192 205 214 212 223 253 272 271 220 194 187 178 165 155 151 147 143 146 149 145 139 134 132 130 125 120 116 112 108 105 102 98 95 92 89 85 81 77
193 191 189 198 208 207 209 218 237 255 264 241 203 193 188 178 166 158 154 149 146 150 150 146 141 138 136 133 128 124 119 114 110 108 105 101 98 94 89 85 80 77
192 193 196 204 204 203 214 228 236 243 237 207 193 189 186 179 169 161 156 150 150 152 151 148 144 141 140 136 130 126 121 117 114 111 107 103 99 93 89 85 80 77
191 195 196 197 199 207 223 230 230 223 203 192 189 183 181 179 172 164 157 153 154 154 153 152 149 146 144 139 133 129 125 122 117 112 108 103 98 94 90 85 81 76
190 191 192 197 203 213 224 225 220 206 189 188 187 179 177 176 171 167 162 157 156 156 156 155 152 149 145 140 136 132 129 125 119 114 109 104 99 96 92 87 82 76
187 189 195 203 208 215 221 214 205 196 188 187 184 178 178 176 171 169 166 162 160 159 159 158 154 151 146 140 137 134 130 126 121 117 111 106 103 100 97 92 85 78
190 197 203 205 208 213 211 202 197 194 189 186 183 180 179 176 173 170 166 164 164 162 162 160 157 154 149 144 140 136 131 128 123 118 114 111 110 107 103 97 91 85
202 205 204 205 207 206 201 197 195 191 187 186 184 182 179 177 176 172 167 165 166 165 164 163 160 157 151 148 144 139 135 130 125 120 118 118 116 113 107 102 96 92
205 205 204 204 203 199 196 194 190 187 186 186 184 182 180 179 177 173 170 168 167 167 166 164 162 159 155 151 147 141 137 133 128 125 124 123 120 115 111 106 100 94
206 204 202 201 198 196 194 190 186 185 184 183 183 183 181 180 178 176 174 172 171 169 168 165 164 162 158 154 149 144 140 136 132 131 129 126 123 119 115 110 103 96
206 201 198 199 197 193 190 185 183 183 182 181 183 184 183 181 180 178 178 177 176 174 171 168 167 165 161 157 152 149 144 139 136 136 133 129 126 123 119 112 104 96
203 198 196 198 196 191 187 185 182 180 181 181 181 181 182 183 182 182 183 182 181 179 177 175 172 170 165 160 156 153 148 143 142 140 136 133 130 127 122 113 103 94
199 199 199 198 196 192 187 183 181 180 180 180 180 178 178 181 185 186 186 188 187 185 184 183 180 175 169 164 160 157 153 150 147 144 140 138 134 129 123 112 101 95
198 211 211 203 198 193 187 182 181 182 180 179 179 176 173 178 185 187 189 193 194 193 193 193 190 182 172 168 164 161 159 156 151 148 146 143 139 132 123 111 101 97
203 214 207 201 198 193 186 182 181 180 180 178 175 171 168 174 182 187 191 196 197 199 201 202 200 191 179 173 169 166 165 161 155 154 153 149 144 135 123 112 105 100
204 202 193 193 195 191 187 186 184 183 183 180 174 168 168 174 180 184 191 198 199 200 201 204 205 200 188 179 174 171 170 165 161 161 159 155 150 136 121 111 108 104